{"data":{"norad_id":68728,"epoch":"2026-05-25T04:00:03.998880Z","epoch_age_seconds":57869,"freshness":"FRESH","line1":"1 68728U 26082A   26145.16671295  .00008121  00000+0  15085-3 0  9997","line2":"2 68728  97.2856   8.7788 0001655  94.9148 355.9126 15.49184452  5795","mean_motion":15.49184452,"eccentricity":0.0001655,"inclination_deg":97.2856,"raan_deg":8.7788,"arg_perigee_deg":94.9148,"mean_anomaly_deg":355.9126,"bstar":0.00015085,"rev_number":579,"period_min":92.952133501015,"perigee_km":417.98562706757,"apogee_km":420.23551601375,"semimajor_km":6797.2475715407,"source":"CELESTRAK","updated_at":"2026-05-25T13:38:22.004230Z"}}